This is the latest recevied weather packets stored in our database for station/object K5GTX. If no packets are shown the sender has not sent any weather packets the latest 1 day(s).
| Time | Temp. | Humidity | Pressure | Rain* | Wind** | Luminosity | Snow |
|---|---|---|---|---|---|---|---|
| 1778071773 | 11.67° C | 99% | 1019.9 hPa | 0 mm | - | 12 W/m² | - |
| 1778071470 | 11.67° C | 99% | 1019.9 hPa | 0 mm | - | 11 W/m² | - |
| 1778071168 | 11.67° C | 99% | 1019.7 hPa | 0 mm | - | 12 W/m² | - |
| 1778070866 | 11.67° C | 99% | 1019.9 hPa | 0 mm | - | 9 W/m² | - |
| 1778070563 | 11.67° C | 99% | 1019.7 hPa | 0 mm | - | 7 W/m² | - |
| 1778069352 | 12.22° C | 99% | 1019.6 hPa | 0 mm | - | 2 W/m² | - |
| 1778066932 | 12.22° C | 99% | 1018.7 hPa | 0 mm | - | 0 W/m² | - |
| 1778066629 | 12.22° C | 99% | 1018.9 hPa | 0 mm | - | 0 W/m² | - |
| 1778066326 | 12.78° C | 99% | 1018.5 hPa | 0 mm | - | 0 W/m² | - |
| 1778064207 | 12.78° C | 99% | 1018.3 hPa | 0 mm | - | 0 W/m² | - |
| 1778063602 | 13.33° C | 99% | 1017.9 hPa | 0 mm | - | 0 W/m² | - |
| 1778063299 | 12.78° C | 99% | 1017.8 hPa | 0 mm | - | 0 W/m² | - |
| 1778062997 | 13.33° C | 99% | 1017.7 hPa | 0 mm | - | 0 W/m² | - |
| 1778062694 | 13.33° C | 99% | 1017.7 hPa | 0 mm | - | 0 W/m² | - |
| 1778062390 | 13.33° C | 99% | 1017.4 hPa | 0 mm | - | 0 W/m² | - |
| 1778061786 | 13.33° C | 99% | 1017.4 hPa | 0 mm | - | 0 W/m² | - |
| 1778061181 | 13.33° C | 99% | 1017.2 hPa | 0 mm | - | 0 W/m² | - |
| 1778060576 | 13.89° C | 99% | 1017.2 hPa | 0 mm | - | 0 W/m² | - |
| 1778060274 | 13.89° C | 99% | 1017.2 hPa | 0 mm | - | 0 W/m² | - |
| 1778059971 | 13.89° C | 99% | 1017.1 hPa | 0 mm | - | 0 W/m² | - |
| 1778059669 | 13.89° C | 99% | 1017.2 hPa | 0 mm | - | 0 W/m² | - |
| 1778058761 | 14.44° C | 99% | 1017.1 hPa | 0 mm | - | 0 W/m² | - |
| 1778058459 | 13.89° C | 99% | 1016.8 hPa | 0 mm | - | 0 W/m² | - |
| 1778057245 | 14.44° C | 99% | 1016.7 hPa | 0 mm | - | 0 W/m² | - |
| 1778056941 | 14.44° C | 99% | 1016.8 hPa | 0 mm | - | 0 W/m² | - |
* Rain latest hour (hover to see other rain measurements)
** Current wind speed in m/s (hover to see current wind gust speed)